Tracking 30061 objects as of 8-Dec-2024
HD Live streaming from Space Station
objects crossing your sky now

OPS 5798 (TRANSIT 5B-4)

Track OPS 5798 (TRANSIT 5B-4) now!
10-day predictions
OPS 5798 (TRANSIT 5B-4) is classified as:


NORAD ID: 897
Int'l Code: 1964-063B
Perigee: 1,051.6 km
Apogee: 1,080.4 km
Inclination: 90.2 °
Period: 106.4 minutes
Semi major axis: 7436 km
RCS: 0.5573 m2 (medium)
Launch date: October 6, 1964
Source: United States (US)
Launch site: AIR FORCE WESTERN TEST RANGE (AFWTR)
Your satellite tracking list
Your tracking list is empty




NASA's NSSDC Master Catalog

Two Line Element Set (TLE):
1 00897U 64063B   24342.76877690  .00000144  00000-0  20032-3 0  9997
2 00897  90.2266  62.6153 0019398   1.6229 114.0817 13.53649281969967
Source of the keplerian elements: AFSPC